Showing default

SBIRS GEO 4 (USA 273), 41937

Orbit data source: Space-Track

SBIRS GEO 4 (USA 273), 41937 is a payload satellite owned by USAF AFSPC (US) in GEO that was launched on Sat, 21 Jan 2017 UTC via an ATLAS V 401 launch vehicle from the Air Force Eastern Test Range (AFETR). Payload-class satellites include a variety of spacecraft equipped with specific instruments for various scientific and technological missions. These include communications satellites like Starlink; space stations such as the ISS; scientific satellites like the Hubble; Earth observation satellites from companies like Planet Labs, Umbra, and HawkEye 360; GPS; miniature CubeSats for education and research; and military/defense satellites.

Not visible in the next 10 days
Identifier
41937, 2017-004A
Orbit
GEO
Last TLE update
7 hours ago
Origin
Manufacturer
LMSS
Mission
Operational Defense Early Warn
Bus & Motor
A2100, LEROS 1C?
Mass
~4,500 kg wet, ~2,500 kg dry
Launch date (UTC)
2017-01-21 (8 years ago)
Launch vehicle
ATLAS V 401
Launch site
Air Force Eastern Test Range (AFETR)
Object type
Payload
Rocket body
Debris
Shape & HBR
Box + 2 Pan, 25 m
Radar Cross Section
33.213 m², Large (>1 m²)

Expand to show TLE details & history

TLE from 7 hours ago
0 SBIRS GEO 4 (USA 273)
1 41937U 17004A   25186.90418348 -.00000166  00000-0  00000+0 0  9998
2 41937   1.6645  28.8220 0001354  70.4050 241.7861  0.99977736 31122
Epoch: 2025-07-05T21:42Z
TLE epoch observation values (Epoch: 2025-07-05T21:42:01.452Z)
Latitude
-1.2462°
Longitude
91.37221°
Altitude
35,871.61 km
Speed
3.071 km/s
True Right ascension
22h 44m 03s
True Declination
-1° 14' 42"
Sunlit
Object was in daylight at epoch
Visualization orbit readout
Latitude
1.29719°
Longitude
-170.76251°
Altitude
35,863.197 km
Speed
3.072 km/s
Apparent Right ascension
05h 08m 51s
Apparent Declination
-3° 47' 46"
Sunlit
Object is in daylight
Visualization observer readout
Local Sidereal Time
16:10:46
Azimuth
336.269° NNW
Elevation
-51.568°
Doppler factor
1
Orbital elements
Apogee altitude
35,876.017 km
Perigee altitude
35,864.576 km
Semi-major axis
42,248.434 km
Eccentricity
0.00014
Inclination
1.6645°
RAAN
28.822°
Arg. of periapsis
70.405°
True anomaly
Unknown
Mean anomaly
241.7861°
Eccentric anomaly
Unknown
Mean motion
0.24994 °/min
Orbital period
1,440.37 mins
BSTAR
0
Loading historical data...
41937 neighbors
Loading maneuver chart data...
Loading SW <> Apogee altitude chart data...
Loading historical data...
Loading historical data...
Loading historical data...
Loading historical data...
Loading historical data...
Loading historical data...
Loading historical data...
Other satellites on launch #4 in the year 2017 (2017-01-21 UTC)

SBIRS GEO 4 (USA 273) Visibility

Observer location: undefined°, undefined°

SBIRS GEO 4 (USA 273) is likely not visible in the next few days
Span
Click to sort rows by Start time (UTC) header in descending order
Start Az.
Max El. time (UTC)
Max El. Az.
Max El.
End time (UTC)
End Az.
|